• In Uzbekistan
  • List of Countries
  • For 7 days
  • Water Temperature
  • Satellite Maps
  • Weather Map
  • Weather Widgets
  • user-avatar
    Login

    Hourly Weather Elbasan

    Today, 8 December, Thursday

    Time Temperature Precipitation Wind Pressure Humidity
    00:00 +2°C° 0 mm 3 mps 749 mmHg 72%
    01:00 +2°C° 0 mm 3 mps 749 mmHg 70%
    02:00 +2°C° 0 mm 3 mps 749 mmHg 70%
    03:00 +2°C° 0 mm 3 mps 749 mmHg 70%
    04:00 +3°C° 0 mm 2 mps 749 mmHg 69%
    05:00 +3°C° 0 mm 2 mps 749 mmHg 69%
    06:00 +3°C° 0 mm 2 mps 749 mmHg 70%
    07:00 +3°C° 0 mm 2 mps 749 mmHg 70%
    08:00 +5°C° 0 mm 2 mps 749 mmHg 63%
    09:00 +7°C° 0 mm 2 mps 749 mmHg 57%
    10:00 +10°C° 0 mm 1 mps 750 mmHg 50%
    11:00 +11°C° 0 mm 1 mps 749 mmHg 48%
    12:00 +12°C° 0 mm 1 mps 749 mmHg 45%
    13:00 +13°C° 0 mm 1 mps 749 mmHg 43%
    14:00 +11°C° 0 mm 1 mps 748 mmHg 53%
    15:00 +9°C° 0 mm 1 mps 748 mmHg 64%
    16:00 +6°C° 0 mm 1 mps 748 mmHg 74%
    17:00 +6°C° 0 mm 1 mps 748 mmHg 75%
    18:00 +5°C° 0 mm 1 mps 748 mmHg 75%
    19:00 +5°C° 0 mm 1 mps 748 mmHg 76%
    20:00 +5°C° 0 mm 1 mps 748 mmHg 74%
    21:00 +4°C° 0 mm 0 mps 748 mmHg 73%
    22:00 +3°C° 0 mm 0 mps 747 mmHg 71%
    23:00 +3°C° 0 mm 0 mps 747 mmHg 69%

    Tomorrow, 9 December, Friday

    Time Temperature Precipitation Wind Pressure Humidity
    00:00 +3°C° 0 mm 0 mps 747 mmHg 68%
    01:00 +3°C° 0 mm 0 mps 747 mmHg 66%
    02:00 +3°C° 0 mm 0 mps 746 mmHg 63%
    03:00 +3°C° 0 mm 0 mps 746 mmHg 60%
    04:00 +4°C° 0 mm 1 mps 745 mmHg 57%
    05:00 +4°C° 0 mm 1 mps 745 mmHg 54%
    06:00 +4°C° 0 mm 1 mps 745 mmHg 51%
    07:00 +4°C° 0 mm 1 mps 745 mmHg 48%
    08:00 +6°C° 0 mm 1 mps 745 mmHg 42%
    09:00 +9°C° 0 mm 1 mps 746 mmHg 36%
    10:00 +12°C° 0 mm 1 mps 746 mmHg 31%
    11:00 +12°C° 0 mm 1 mps 745 mmHg 34%
    12:00 +13°C° 0 mm 1 mps 745 mmHg 37%
    13:00 +13°C° 0 mm 1 mps 744 mmHg 40%
    14:00 +11°C° 0 mm 1 mps 744 mmHg 51%
    15:00 +9°C° 0 mm 1 mps 744 mmHg 63%
    16:00 +6°C° 0 mm 1 mps 743 mmHg 75%
    17:00 +6°C° 0 mm 1 mps 743 mmHg 75%
    18:00 +6°C° 0 mm 1 mps 744 mmHg 76%
    19:00 +5°C° 0 mm 1 mps 744 mmHg 76%
    20:00 +5°C° 0 mm 1 mps 743 mmHg 75%
    21:00 +5°C° 0 mm 1 mps 743 mmHg 73%
    22:00 +5°C° 0 mm 1 mps 743 mmHg 72%
    23:00 +5°C° 0 mm 1 mps 743 mmHg 70%

    Day after tomorrow, 10 December, Saturday

    Time Temperature Precipitation Wind Pressure Humidity
    00:00 +5°C° 0 mm 1 mps 743 mmHg 67%
    01:00 +5°C° 0 mm 1 mps 743 mmHg 65%
    02:00 +5°C° 0 mm 1 mps 742 mmHg 63%
    03:00 +5°C° 0 mm 1 mps 742 mmHg 61%
    04:00 +5°C° 0 mm 1 mps 742 mmHg 58%
    05:00 +5°C° 0 mm 1 mps 742 mmHg 56%
    06:00 +5°C° 0 mm 1 mps 742 mmHg 53%
    07:00 +5°C° 0 mm 1 mps 742 mmHg 51%
    08:00 +8°C° 0 mm 1 mps 742 mmHg 46%
    09:00 +11°C° 0 mm 1 mps 742 mmHg 40%
    10:00 +13°C° 0 mm 1 mps 742 mmHg 35%
    11:00 +14°C° 0 mm 1 mps 742 mmHg 36%
    12:00 +15°C° 0 mm 1 mps 742 mmHg 36%
    13:00 +16°C° 0 mm 1 mps 741 mmHg 37%
    14:00 +13°C° 0 mm 1 mps 741 mmHg 47%
    15:00 +10°C° 0 mm 1 mps 741 mmHg 57%
    16:00 +8°C° 0 mm 1 mps 741 mmHg 67%
    17:00 +7°C° 0 mm 1 mps 741 mmHg 68%
    18:00 +7°C° 0 mm 1 mps 741 mmHg 69%
    19:00 +6°C° 0 mm 1 mps 741 mmHg 70%
    20:00 +6°C° 0 mm 1 mps 741 mmHg 71%
    21:00 +6°C° 0 mm 1 mps 741 mmHg 72%
    22:00 +6°C° 0 mm 1 mps 741 mmHg 72%
    23:00 +5°C° 0 mm 0 mps 740 mmHg 74%

    11 December, Sunday

    Time Temperature Precipitation Wind Pressure Humidity
    00:00 +4°C° 0 mm 0 mps 740 mmHg 76%
    01:00 +4°C° 0 mm 0 mps 740 mmHg 77%
    02:00 +4°C° 0 mm 0 mps 740 mmHg 78%
    03:00 +4°C° 0 mm 0 mps 739 mmHg 78%
    04:00 +4°C° 0 mm 0 mps 739 mmHg 78%
    05:00 +4°C° 0 mm 0 mps 739 mmHg 77%
    06:00 +4°C° 0 mm 0 mps 739 mmHg 77%
    07:00 +4°C° 0 mm 0 mps 739 mmHg 76%
    08:00 +7°C° 0 mm 0 mps 739 mmHg 64%
    09:00 +10°C° 0 mm 0 mps 739 mmHg 52%
    10:00 +13°C° 0 mm 0 mps 740 mmHg 40%
    11:00 +14°C° 0 mm 0 mps 739 mmHg 42%
    12:00 +15°C° 0 mm 1 mps 739 mmHg 43%
    13:00 +16°C° 0 mm 1 mps 738 mmHg 45%
    14:00 +13°C° 0 mm 1 mps 738 mmHg 56%
    15:00 +11°C° 0 mm 1 mps 737 mmHg 67%
    16:00 +8°C° 0 mm 1 mps 737 mmHg 79%
    17:00 +8°C° 0 mm 1 mps 737 mmHg 81%
    18:00 +7°C° 0 mm 1 mps 737 mmHg 82%
    19:00 +6°C° 0 mm 1 mps 737 mmHg 84%
    20:00 +6°C° 0 mm 1 mps 737 mmHg 84%
    21:00 +6°C° 0 mm 1 mps 737 mmHg 84%
    22:00 +6°C° 0 mm 1 mps 737 mmHg 83%
    23:00 +6°C° 0 mm 1 mps 736 mmHg 83%

    12 December, Monday

    Time Temperature Precipitation Wind Pressure Humidity
    00:00 +5°C° 0 mm 1 mps 736 mmHg 84%
    01:00 +5°C° 0 mm 1 mps 736 mmHg 84%
    02:00 +5°C° 0 mm 1 mps 736 mmHg 84%
    03:00 +5°C° 0 mm 1 mps 735 mmHg 84%
    04:00 +5°C° 0 mm 1 mps 735 mmHg 84%
    05:00 +5°C° 0 mm 1 mps 735 mmHg 85%
    06:00 +5°C° 0 mm 1 mps 735 mmHg 85%
    07:00 +5°C° 0 mm 1 mps 735 mmHg 86%
    08:00 +7°C° 0 mm 1 mps 735 mmHg 77%
    09:00 +10°C° 0 mm 1 mps 736 mmHg 69%
    10:00 +12°C° 0 mm 1 mps 736 mmHg 60%
    11:00 +13°C° 0 mm 1 mps 736 mmHg 59%
    12:00 +13°C° 0 mm 1 mps 735 mmHg 57%
    13:00 +14°C° 0 mm 1 mps 735 mmHg 55%
    14:00 +12°C° 0 mm 1 mps 735 mmHg 65%
    15:00 +10°C° 0 mm 1 mps 735 mmHg 74%
    16:00 +8°C° 0 mm 1 mps 735 mmHg 84%
    17:00 +7°C° 0 mm 1 mps 736 mmHg 84%
    18:00 +7°C° 0 mm 1 mps 736 mmHg 84%
    19:00 +6°C° 0 mm 1 mps 736 mmHg 85%
    20:00 +5°C° 0 mm 2 mps 737 mmHg 84%
    21:00 +5°C° 0 mm 2 mps 737 mmHg 83%
    22:00 +5°C° 0 mm 2 mps 737 mmHg 82%
    23:00 +5°C° 0 mm 2 mps 737 mmHg 83%

    13 December, Tuesday

    Time Temperature Precipitation Wind Pressure Humidity
    00:00 +4°C° 0 mm 2 mps 738 mmHg 84%
    01:00 +4°C° 0 mm 2 mps 738 mmHg 85%
    02:00 +4°C° 0 mm 2 mps 738 mmHg 85%
    03:00 +4°C° 0 mm 2 mps 738 mmHg 85%
    04:00 +3°C° 0 mm 2 mps 738 mmHg 85%
    05:00 +3°C° 0 mm 2 mps 738 mmHg 85%
    06:00 +3°C° 0 mm 2 mps 739 mmHg 85%
    07:00 +3°C° 0 mm 2 mps 739 mmHg 84%
    08:00 +5°C° 0 mm 2 mps 739 mmHg 75%
    09:00 +7°C° 0 mm 2 mps 740 mmHg 67%
    10:00 +9°C° 0 mm 2 mps 740 mmHg 58%
    11:00 +10°C° 0 mm 2 mps 740 mmHg 54%
    12:00 +12°C° 0 mm 2 mps 740 mmHg 50%
    13:00 +13°C° 0 mm 2 mps 740 mmHg 46%
    14:00 +10°C° 0 mm 2 mps 740 mmHg 54%
    15:00 +8°C° 0 mm 2 mps 740 mmHg 62%
    16:00 +6°C° 0 mm 2 mps 740 mmHg 69%
    17:00 +6°C° 0 mm 2 mps 740 mmHg 72%
    18:00 +5°C° 0 mm 2 mps 741 mmHg 75%
    19:00 +5°C° 0 mm 2 mps 741 mmHg 78%
    20:00 +4°C° 0 mm 2 mps 741 mmHg 79%
    21:00 +4°C° 0 mm 2 mps 741 mmHg 80%
    22:00 +4°C° 0 mm 2 mps 742 mmHg 82%
    23:00 +4°C° 0 mm 2 mps 742 mmHg 82%
    Show more